Dati Storici

Data ora Umidita' aria (%) Temperatura aria (°C) Rad globale (W/m²) Gonioanemometro (°) Tacoanemometro (m/s) Pioggia (mm)
01-07-2020 14:10 62.9 % 29.768 12.384 1.678 0 0
01-07-2020 14:00 61.5 % 29.866 -76.755 2.376 0 0
01-07-2020 13:50 60.1 % 29.183 -54.623 1.269 0 0
01-07-2020 13:40 59.8 % 30.036 -49.92 1.215 0 0
01-07-2020 13:30 60.6 % 29.776 -49.545 0.635 0 0
01-07-2020 13:20 62.2 % 30.141 -49.846 2.184 0 0
01-07-2020 13:10 61.1 % 29.072 -47.742 3.626 0 0
01-07-2020 13:00 63 % 29.327 -58.358 3.994 0 0
01-07-2020 12:50 64.1 % 29.213 -61.545 1.263 0 0
01-07-2020 12:40 62.5 % 28.828 -50.171 2.97 0 0
01-07-2020 12:30 60 % 30.444 -77.146 0.633 0 0
01-07-2020 12:20 59 % 29.855 -80.783 2.518 0 0
01-07-2020 12:10 60.3 % 29.571 -78.13 1.141 0 0
01-07-2020 12:00 59.1 % 29.819 -35.666 3.341 0 0
01-07-2020 11:50 61.8 % 29.878 -47.795 1.062 0 0
01-07-2020 11:40 61.6 % 30.119 -73.732 1.608 0 0
01-07-2020 11:30 65.5 % 29.658 -46.284 1.864 0 0
01-07-2020 11:20 63.8 % 29.366 -66.612 1.616 0 0
01-07-2020 11:10 65.9 % 29.155 -69.958 1.315 0 0
01-07-2020 11:00 65.8 % 29.218 -66.65 2.936 0 0

I dati sono presentati in modo automatico a scopo informativo. In seguito a verifica i dati possono subire modifiche o essere invalidati e non riportati negli archivi definitivi.